If you wish to contribute or participate in the discussions about articles you are invited to join SKYbrary as a registered user

 Actions

Ain Arnat Airport

From SKYbrary Wiki

DAAS
Airport
ICAO: DAAS – IATA: QSF
Summary
Name Ain Arnat Airport
Region Africa
Territory Algeria DZ.gif
Location , Setif
Serving Setif
Elevation 1,024.128 m
3,360 ft
3,360 ft1,024.128 m
Type medium airport
Coordinates 36° 10' 41.16" N, 5° 19' 28.16" E
Runways
Designator Length Width Surface ROPS


METAR
Observation DAAS 160000Z 06006KT 8000 SCT030 19/13 Q1021
Station Setif
Date/Time 16 June 2019 00:00:00
Wind direction 60°
Wind speed 06 kts
Lowest cloud amount scattered clouds
Temperature 19°C
Dew point 13°C
Humidity 68%
QNH 1021 hPa
Weather condition n/a